When you browse on this site, cookies collect data to enhance your experience and personalize the content and advertising you see.
Visit our Privacy Policy to learn more. By continuing to use the site, you agree to this use of cookies and data.
  • în România
  • Lista ţărilor
  • Pe 7 zile
  • Temperatura apei
  • Hartă satelitară
  • Meteo pe hartă
  • Widget-uri
  • user-avatar
    Intrare

    Meteo pe oră la Vratsa

    Astăzi, 20 Mai, Luni

    Timp Temperatura Precipitaţii Vânt Presiune Umiditate
    00:00 +14°C° 0 mm 3 m/s 702 mmHg 72%
    01:00 +14°C° 0 mm 3 m/s 702 mmHg 71%
    02:00 +13°C° 0 mm 3 m/s 702 mmHg 69%
    03:00 +13°C° 0 mm 3 m/s 702 mmHg 69%
    04:00 +14°C° 0 mm 2 m/s 702 mmHg 68%
    05:00 +13°C° 0 mm 2 m/s 702 mmHg 68%
    06:00 +15°C° 0 mm 2 m/s 702 mmHg 67%
    07:00 +16°C° 0 mm 1 m/s 703 mmHg 66%
    08:00 +18°C° 0 mm 1 m/s 703 mmHg 65%
    09:00 +20°C° 0 mm 1 m/s 703 mmHg 61%
    10:00 +21°C° 0 mm 1 m/s 703 mmHg 58%
    11:00 +23°C° 0 mm 1 m/s 703 mmHg 54%
    12:00 +22°C° 1.2 mm 1 m/s 703 mmHg 58%
    13:00 +21°C° 1.2 mm 2 m/s 703 mmHg 62%
    14:00 +21°C° 1.2 mm 2 m/s 703 mmHg 65%
    15:00 +20°C° 1.7 mm 2 m/s 703 mmHg 69%
    16:00 +19°C° 1.7 mm 2 m/s 703 mmHg 72%
    17:00 +20°C° 1.7 mm 1 m/s 703 mmHg 75%
    18:00 +18°C° 0.5 mm 1 m/s 703 mmHg 78%
    19:00 +16°C° 0.5 mm 2 m/s 703 mmHg 80%
    20:00 +14°C° 0.5 mm 2 m/s 703 mmHg 83%
    21:00 +13°C° 0 mm 2 m/s 703 mmHg 84%
    22:00 +12°C° 0 mm 2 m/s 703 mmHg 85%
    23:00 +10°C° 0 mm 2 m/s 704 mmHg 85%

    Mâine, 21 Mai, Marţi

    Timp Temperatura Precipitaţii Vânt Presiune Umiditate
    00:00 +10°C° 0 mm 3 m/s 704 mmHg 85%
    01:00 +10°C° 0 mm 3 m/s 704 mmHg 85%
    02:00 +9°C° 0 mm 3 m/s 704 mmHg 84%
    03:00 +9°C° 0 mm 3 m/s 704 mmHg 84%
    04:00 +9°C° 0 mm 3 m/s 704 mmHg 84%
    05:00 +8°C° 0 mm 2 m/s 704 mmHg 84%
    06:00 +10°C° 0 mm 2 m/s 705 mmHg 79%
    07:00 +13°C° 0 mm 2 m/s 705 mmHg 74%
    08:00 +15°C° 0 mm 2 m/s 706 mmHg 68%
    09:00 +16°C° 0 mm 3 m/s 706 mmHg 61%
    10:00 +18°C° 0 mm 3 m/s 706 mmHg 53%
    11:00 +19°C° 0 mm 3 m/s 706 mmHg 46%
    12:00 +20°C° 0 mm 3 m/s 706 mmHg 45%
    13:00 +20°C° 0 mm 3 m/s 706 mmHg 45%
    14:00 +20°C° 0 mm 3 m/s 706 mmHg 45%
    15:00 +20°C° 0 mm 3 m/s 706 mmHg 47%
    16:00 +20°C° 0 mm 3 m/s 706 mmHg 50%
    17:00 +20°C° 0 mm 3 m/s 706 mmHg 52%
    18:00 +18°C° 0 mm 2 m/s 706 mmHg 57%
    19:00 +16°C° 0 mm 2 m/s 706 mmHg 62%
    20:00 +14°C° 0 mm 1 m/s 706 mmHg 67%
    21:00 +13°C° 0 mm 2 m/s 706 mmHg 68%
    22:00 +13°C° 0 mm 2 m/s 707 mmHg 69%
    23:00 +12°C° 0 mm 2 m/s 707 mmHg 70%

    Poimâine, 22 Mai, Miercuri

    Timp Temperatura Precipitaţii Vânt Presiune Umiditate
    00:00 +10°C° 0 mm 2 m/s 707 mmHg 71%
    01:00 +10°C° 0 mm 2 m/s 707 mmHg 71%
    02:00 +10°C° 0 mm 2 m/s 707 mmHg 71%
    03:00 +9°C° 0 mm 2 m/s 707 mmHg 72%
    04:00 +9°C° 0 mm 2 m/s 707 mmHg 72%
    05:00 +8°C° 0 mm 2 m/s 707 mmHg 73%
    06:00 +10°C° 0 mm 2 m/s 708 mmHg 70%
    07:00 +13°C° 0 mm 2 m/s 708 mmHg 67%
    08:00 +15°C° 0 mm 2 m/s 709 mmHg 63%
    09:00 +17°C° 0 mm 2 m/s 709 mmHg 58%
    10:00 +20°C° 0 mm 1 m/s 709 mmHg 52%
    11:00 +21°C° 0 mm 1 m/s 709 mmHg 46%
    12:00 +22°C° 0 mm 1 m/s 709 mmHg 45%
    13:00 +23°C° 0 mm 2 m/s 709 mmHg 45%
    14:00 +23°C° 0 mm 2 m/s 709 mmHg 44%
    15:00 +23°C° 0 mm 2 m/s 708 mmHg 46%
    16:00 +23°C° 0 mm 1 m/s 708 mmHg 49%
    17:00 +23°C° 0 mm 1 m/s 708 mmHg 51%
    18:00 +21°C° 0.1 mm 1 m/s 708 mmHg 58%
    19:00 +19°C° 0.1 mm 1 m/s 707 mmHg 65%
    20:00 +14°C° 0.1 mm 0 m/s 707 mmHg 73%
    21:00 +15°C° 0.1 mm 1 m/s 707 mmHg 75%
    22:00 +14°C° 0.1 mm 1 m/s 707 mmHg 76%
    23:00 +14°C° 0.1 mm 1 m/s 708 mmHg 78%

    23 Mai, Joi

    Timp Temperatura Precipitaţii Vânt Presiune Umiditate
    00:00 +13°C° 0.1 mm 1 m/s 707 mmHg 79%
    01:00 +13°C° 0.1 mm 1 m/s 707 mmHg 81%
    02:00 +12°C° 0.1 mm 2 m/s 707 mmHg 82%
    03:00 +12°C° 0 mm 1 m/s 707 mmHg 82%
    04:00 +12°C° 0 mm 1 m/s 707 mmHg 83%
    05:00 +11°C° 0 mm 1 m/s 707 mmHg 84%
    06:00 +13°C° 0 mm 1 m/s 707 mmHg 78%
    07:00 +15°C° 0 mm 1 m/s 708 mmHg 73%
    08:00 +18°C° 0 mm 1 m/s 708 mmHg 68%
    09:00 +18°C° 0.3 mm 2 m/s 708 mmHg 68%
    10:00 +19°C° 0.3 mm 3 m/s 708 mmHg 68%
    11:00 +19°C° 0.3 mm 3 m/s 708 mmHg 68%
    12:00 +20°C° 0.5 mm 3 m/s 708 mmHg 67%
    13:00 +20°C° 0.5 mm 4 m/s 708 mmHg 66%
    14:00 +20°C° 0.5 mm 4 m/s 707 mmHg 65%
    15:00 +20°C° 0.3 mm 4 m/s 707 mmHg 67%
    16:00 +19°C° 0.3 mm 4 m/s 707 mmHg 69%
    17:00 +19°C° 0.3 mm 4 m/s 706 mmHg 70%
    18:00 +17°C° 0.1 mm 3 m/s 706 mmHg 75%
    19:00 +16°C° 0.1 mm 2 m/s 706 mmHg 80%
    20:00 +14°C° 0.1 mm 1 m/s 706 mmHg 85%
    21:00 +14°C° 0 mm 1 m/s 706 mmHg 86%
    22:00 +13°C° 0 mm 1 m/s 706 mmHg 87%
    23:00 +13°C° 0 mm 1 m/s 706 mmHg 88%

    24 Mai, Vineri

    Timp Temperatura Precipitaţii Vânt Presiune Umiditate
    00:00 +12°C° 0 mm 1 m/s 706 mmHg 88%
    01:00 +12°C° 0 mm 2 m/s 706 mmHg 88%
    02:00 +12°C° 0 mm 2 m/s 705 mmHg 88%
    03:00 +10°C° 0 mm 2 m/s 705 mmHg 88%
    04:00 +10°C° 0 mm 2 m/s 705 mmHg 87%
    05:00 +9°C° 0 mm 2 m/s 705 mmHg 87%
    06:00 +12°C° 0 mm 2 m/s 705 mmHg 82%
    07:00 +12°C° 0 mm 3 m/s 705 mmHg 76%
    08:00 +14°C° 0 mm 3 m/s 705 mmHg 70%
    09:00 +16°C° 0 mm 3 m/s 705 mmHg 65%
    10:00 +17°C° 0 mm 3 m/s 705 mmHg 61%
    11:00 +19°C° 0 mm 4 m/s 705 mmHg 56%
    12:00 +19°C° 0 mm 4 m/s 705 mmHg 57%
    13:00 +19°C° 0 mm 4 m/s 704 mmHg 59%
    14:00 +19°C° 0 mm 4 m/s 704 mmHg 60%
    15:00 +19°C° 0.2 mm 4 m/s 703 mmHg 63%
    16:00 +19°C° 0.2 mm 3 m/s 703 mmHg 65%
    17:00 +18°C° 0.2 mm 3 m/s 703 mmHg 68%
    18:00 +17°C° 0.2 mm 3 m/s 703 mmHg 74%
    19:00 +15°C° 0.2 mm 2 m/s 702 mmHg 79%
    20:00 +13°C° 0.2 mm 1 m/s 702 mmHg 85%
    21:00 +13°C° 0 mm 1 m/s 702 mmHg 86%
    22:00 +12°C° 0 mm 2 m/s 702 mmHg 87%
    23:00 +12°C° 0 mm 2 m/s 702 mmHg 88%

    25 Mai, Sâmbătă

    Timp Temperatura Precipitaţii Vânt Presiune Umiditate
    00:00 +10°C° 0 mm 2 m/s 702 mmHg 88%
    01:00 +10°C° 0 mm 2 m/s 702 mmHg 88%
    02:00 +9°C° 0 mm 2 m/s 702 mmHg 88%
    03:00 +9°C° 0 mm 2 m/s 702 mmHg 88%
    04:00 +9°C° 0 mm 2 m/s 702 mmHg 87%
    05:00 +8°C° 0 mm 2 m/s 702 mmHg 87%
    06:00 +10°C° 0 mm 2 m/s 703 mmHg 82%
    07:00 +13°C° 0 mm 2 m/s 703 mmHg 76%
    08:00 +15°C° 0 mm 2 m/s 703 mmHg 71%
    09:00 +18°C° 0 mm 1 m/s 704 mmHg 63%
    10:00 +20°C° 0 mm 1 m/s 704 mmHg 55%
    11:00 +21°C° 0 mm 1 m/s 704 mmHg 48%
    12:00 +22°C° 0 mm 1 m/s 704 mmHg 45%
    13:00 +23°C° 0 mm 1 m/s 704 mmHg 42%
    14:00 +24°C° 0 mm 1 m/s 704 mmHg 40%
    15:00 +23°C° 0 mm 1 m/s 703 mmHg 42%
    16:00 +23°C° 0 mm 1 m/s 703 mmHg 45%
    17:00 +23°C° 0 mm 2 m/s 703 mmHg 47%
    18:00 +21°C° 0 mm 1 m/s 703 mmHg 55%
    19:00 +18°C° 0 mm 1 m/s 703 mmHg 62%
    20:00 +15°C° 0 mm 1 m/s 702 mmHg 70%
    21:00 +14°C° 0 mm 1 m/s 703 mmHg 72%
    22:00 +14°C° 0 mm 1 m/s 703 mmHg 73%
    23:00 +13°C° 0 mm 1 m/s 703 mmHg 75%
    Arată mai mult